Glens Falls, NY

3:09 AM EST on December 16, 2019 (GMT -0500)
Bennett Memorial

Weather History for KGFL - October, 2019

Change the Weather History Date:

Wednesday, October 9, 2019

  Actual Average Record
Temperature  
Mean Temperature 50 °F 49 °F  
Max Temperature 64 °F 61 °F 80 °F (1909)
Min Temperature 35 °F 37 °F 20 °F (2001)
Degree Days  
Heating Degree Days 15 16  
Month to date heating degree days 125 131  
Since 1 July heating degree days 347 416  
Cooling Degree Days 0 0  
Month to date cooling degree days 0 0  
Year to date cooling degree days 416 351  
Moisture  
Dew Point 40 °F    
Average Humidity 70    
Maximum Humidity 100    
Minimum Humidity 39    
Precipitation  
Precipitation 0.00 in 0.11 in 2.70 in (1976)
Month to date precipitation 1.42 1.04  
Year to date precipitation 32.27 30.23  
Sea Level Pressure  
Sea Level Pressure 30.37 in    
Wind  
Wind Speed 5 mph (NE)    
Max Wind Speed 13 mph    
Max Gust Speed 16 mph    
Visibility 10 miles    
Events      
T = Trace of Precipitation, MM = Missing Value Source: NWS Daily Summary

Daily Weather History Graph

Daily Weather History Graph

Search for Another Location

Airport or City:

Astronomy

Oct. 09, 2019 Rise Set
Actual Time 7:00 AM EDT 6:21 PM EDT
Civil Twilight 6:32 AM EDT 6:50 PM EDT
Nautical Twilight 5:59 AM EDT 7:23 PM EDT
Astronomical Twilight 5:26 AM EDT 7:56 PM EDT
Moon 5:01 PM EDT (10/9) 2:35 AM EDT (10/9)
Length of Visible Light 12h 18m
Length of Day
11h 21m
Waxing Gibbous, 85% of the Moon is Illuminated
Oct 9
Waxing Gibbous
Oct 13
Full
Oct 21
Last Quarter
Oct 27
New
Nov 4
First Quarter

Hourly Weather History & Observations

Time (EDT) Temp. Windchill Dew Point Humidity Pressure Visibility Wind Dir Wind Speed Gust Speed Precip Events Conditions
12:53 AM 41.0 °F - 37.9 °F 89% 30.35 in - Calm Calm - N/A   Clear
1:53 AM 39.9 °F - 37.9 °F 93% 30.36 in - Calm Calm - N/A   Clear
2:53 AM 39.9 °F 37.8 °F 37.0 °F 89% 30.35 in - South 3.5 mph - N/A   Clear
3:53 AM 41.0 °F 39.0 °F 37.9 °F 89% 30.35 in - ENE 3.5 mph - N/A   Clear
4:53 AM 39.0 °F - 36.0 °F 89% 30.36 in - Calm Calm - N/A   Clear
5:53 AM 37.0 °F - 36.0 °F 96% 30.38 in - Calm Calm - N/A   Clear
6:53 AM 37.9 °F - 37.0 °F 97% 30.39 in - Calm Calm - N/A   Unknown
7:53 AM 44.1 °F 42.5 °F 42.1 °F 93% 30.40 in - ENE 3.5 mph - N/A   Clear
8:53 AM 46.9 °F - 43.0 °F 86% 30.41 in - East 3.5 mph - N/A   Clear
9:53 AM 53.1 °F - 44.1 °F 71% 30.41 in - NNW 6.9 mph - N/A   Clear
10:53 AM 57.0 °F - 41.0 °F 55% 30.40 in - NNE 11.5 mph - N/A   Clear
11:53 AM 59.0 °F - 39.9 °F 49% 30.39 in 10.0 mi NNE 10.4 mph - N/A   Unknown
12:53 PM 60.1 °F - 41.0 °F 49% 30.38 in 10.0 mi NE 9.2 mph - N/A   Clear
1:53 PM 62.1 °F - 41.0 °F 46% 30.36 in 10.0 mi ESE 8.1 mph - N/A   Clear
2:53 PM 62.1 °F - 39.0 °F 43% 30.35 in 10.0 mi East 5.8 mph - N/A   Clear
3:53 PM 62.1 °F - 37.9 °F 41% 30.34 in 10.0 mi ENE 8.1 mph - N/A   Clear
4:53 PM 62.1 °F - 39.9 °F 44% 30.33 in 10.0 mi NE 5.8 mph - N/A   Clear
5:53 PM 59.0 °F - 43.0 °F 55% 30.35 in 10.0 mi NE 6.9 mph - N/A   Clear
6:53 PM 53.1 °F - 43.0 °F 69% 30.37 in 10.0 mi NNE 4.6 mph - N/A   Clear
7:53 PM 51.1 °F - 43.0 °F 74% 30.37 in 10.0 mi North 5.8 mph - N/A   Clear
8:53 PM 48.9 °F - 41.0 °F 74% 30.36 in 10.0 mi North 4.6 mph - N/A   Clear
9:53 PM 45.0 °F - 42.1 °F 90% 30.36 in 10.0 mi Calm Calm - N/A   Scattered Clouds
10:53 PM 51.1 °F - 43.0 °F 74% 30.37 in 10.0 mi North 4.6 mph - N/A   Overcast
11:53 PM 51.1 °F - 44.1 °F 77% 30.36 in 10.0 mi North 6.9 mph - N/A   Mostly Cloudy